Regional Weather Roundup
Issued by NWS Newport/Morehead, NC

Current Version | Previous Version | Graphics & Text | Print | Product List | Glossary Off
Versions: 1 2 3 4 5 6 7 8 9 10 11 12 13 14 15 16 17 18 19 20 21 22 23 24 25 26 27 28 29 30 31 32 33 34 35 36 37 38 39 40 41 42 43 44 45 46 47 48 49 50

000
ASUS42 KMHX 220713
RWRMHX
WEATHER ROUNDUP FOR EASTERN NORTH CAROLINA
NATIONAL WEATHER SERVICE NEWPORT/MOREHEAD CITY NC
200 AM EST WED FEB 22 2017

NOTE: "FAIR" INDICATES FEW OR NO CLOUDS BELOW 12,000 FEET
WITH NO SIGNIFICANT WEATHER AND/OR OBSTRUCTIONS TO VISIBILITY

NCZ015>017-031-032-045>047-102-103-220800-
NORTH COAST

CITY           SKY/WX    TMP DP  RH WIND       PRES   REMARKS
EDENTON        CLOUDY    51  49  93 SE5       30.09F
ELIZABETH CITY PTCLDY    49  47  93 SE6       30.08F
KITTY HAWK     NOT AVBL
MANTEO         CLOUDY    49  49 100 SE6       30.10F

$$

NCZ045>047-081-094-103-104-220800-
CENTRAL COAST

CITY           SKY/WX    TMP DP  RH WIND       PRES   REMARKS
FRISCO         PTCLDY    60  49  66 SE6       30.09F

$$

NCZ095-097-098-100-101-220800-
SOUTHERN COAST

CITY           SKY/WX    TMP DP  RH WIND       PRES   REMARKS
BEAUFORT       PTCLDY    50  49  96 CALM      30.08F
CEDAR ISLAND   NOT AVBL
JACKSONVILLE   MOCLDY    51  50  96 CALM      30.07F
PINEY ISLAND   PTSUNNY  N/A N/A N/A E6        30.08F
WILMINGTON     MOCLDY    52  52 100 CALM      30.05F


$$

NCZ011>013-027>030-043-044-078>080-089-090>093-098-220800-
COASTAL PLAIN

CITY           SKY/WX    TMP DP  RH WIND       PRES   REMARKS
AHOSKIE          N/A     44  41  91 CALM      30.10S
CLINTON        PTCLDY    52  50  94 E3        30.06F
ELIZABETHTOWN  PTCLDY    53  51  95 E3        30.04F
GOLDSBORO      CLOUDY    48  48 100 SE3       30.05F
GREENVILLE     PTCLDY    46  46 100 CALM      30.10F
HAVELOCK       MOCLDY    51  50  96 CALM      30.09F
KENANSVILLE    NOT AVBL
KINSTON        PTCLDY    49  47  92 CALM      30.09S
NEW BERN       MOCLDY    48  48 100 CALM      30.09F FOG
RICHLANDS      PTCLDY    48  48 100 E3        30.07F FOG
ROCKY MOUNT    CLOUDY    48  47  96 CALM      30.08F
WASHINGTON     PTCLDY    46  44  95 CALM      30.09F
WHITEVILLE     MOCLDY    55  52  91 NE3       30.04F

$$

AMZ130-135-150-152-154-156-158-170-250-252-270-ANZ085-086-088-633-658-670-220800-
MARINE OBSERVATIONS

STATION/POSITION TIME  TEMP    WIND        PRES    WAVE   SWELL
                       AIR SEA DIR/SP/G            HT/PER HT/PER
                 (UTC) (F)     (DEG/KT/KT) (MB)    (FT/S) (FT/S)
CHESAPEAKE LIGHT NOT AVBL
64 E VA BEACH    0650   54 53  110/  4/  4 1019.0    4/ 9   3/ 9
DUCK             0642          130/  6/  6 1018.6
2 E DUCK         0700      48                N/A     4/ 8
OREGON INLET     0642           90/  4/  4 1019.2
13E OREGON INLT  NOT AVBL
HATTERAS CG      0642          130/  5/  7 1018.6
DIAMOND BUOY     0650   63 74  150/  8/ 10 1019.2    4/10   3/10
CAPE LOOKOUT     0600   60     110/  8/  8 1018.5
BEAUFORT LAB     0642           20/  2/  2 1017.6
30 SE NEW RVR IN NOT AVBL
30 SE NEW RVR IN 0643      69                N/A     3/ 8
27 SE WRIGHTSVLE 0608   66 65  130/ 10/ 16 1017.2
5 SE WRIGHTSVLE  0608   58 56   80/  4/  8 1017.8
225 S CAPE HAT   0650   64 71   90/ 10/ 12 1018.0    5/ 8   5/ 8
41 SE CHARLESTON 0650   70 69  120/ 16/ 19 1014.8    4/ 5   2/12

$$




USA.gov is the U.S. government's official web portal to all federal, state and local government web resources and services.